Location: Little Buffalo State Park
(40.4572°N, 77.1689°W)
Time: 22:51:32
(UTC-04:00)

N. Korean satellite - Visible Passes

Search period start: 20 October 2019 00:00
Search period end: 30 October 2019 00:00
Orbit: 455 x 508 km, 97.2° (Epoch: 20 October)

Date Brightness Start Highest point End Pass type
(mag) Time Alt. Az. Time Alt. Az. Time Alt. Az.
20 Oct 10.1 19:16:56 10° SW 19:18:50 14° W 19:20:45 10° WNW visible
21 Oct 8.2 06:41:46 10° NNE 06:45:14 41° E 06:48:43 10° S visible
21 Oct 8.9 18:50:21 10° SSW 18:53:23 29° W 18:56:27 10° NW visible
22 Oct 9.7 06:17:04 10° NE 06:19:50 20° E 06:22:36 10° SE visible
24 Oct 6.9 06:59:04 10° NNE 07:02:43 74° E 07:06:24 10° S visible
24 Oct 9.8 19:08:31 10° SW 19:10:55 18° W 19:13:20 10° NW visible
25 Oct 8.7 06:34:01 10° NNE 06:37:23 33° E 06:40:44 10° SSE visible
25 Oct 8.3 18:42:15 10° SSW 18:45:28 37° W 18:48:44 10° NNW visible
26 Oct 10.0 06:09:31 10° NE 06:11:56 17° E 06:14:21 10° SE visible
27 Oct 10.4 19:27:40 10° WSW 19:28:28 11° W 19:29:16 10° WNW visible
28 Oct 7.4 06:51:12 10° NNE 06:54:51 58° E 06:58:30 10° S visible
28 Oct 9.4 19:00:12 10° SSW 19:02:57 22° W 19:05:44 10° NW visible
29 Oct 9.1 06:26:17 10° NE 06:29:27 27° E 06:32:39 10° SSE visible
29 Oct 7.7 18:34:11 10° S 18:37:31 48° W 18:40:56 10° NNW visible
